Location: Franzen
(48.6167°N, 15.3833°E)
Time: 17:41:42
(UTC+00:00)

A-11 Canister half - Pass Details

Date: 30 July 2021
Orbit: 1515 x 1685 km, 47.2° (Epoch: 19 September)

Event Time Altitude Azimuth Distance (km) Brightness Sun altitude
Rises 19:40:37 0° 272° (W) 4,866 12.5 -9.1°
Reaches altitude 10° 19:43:43 10° 272° (W) 3,898 11.9 -9.5°
Maximum altitude 19:53:47 83° 186° (S) 1,695 9.2 -10.7°
Drops below altitude 10° 20:04:00 10° 101° (ESE) 3,948 10.7 -11.9°
Enters shadow 20:05:30 - 101° (E) 4,415 10.9 -12.1°
Sets 20:07:09 0° 101° (E) 4,931 - -12.3°
